Location: Songkhla
(7.2000°N, 100.6000°E)
Time: 06:48:36
(UTC+07:00)

CENTAUR R/B - Pass Details

Date: 16 April 2026
Orbit: 623 x 1557 km, 63.4° (Epoch: 17 May)

Event Time Altitude Azimuth Distance (km) Brightness Sun altitude
Rises 18:40:52 0° 347° (NNW) 4,599 6.3 -4.4°
Reaches altitude 10° 18:43:56 10° 352° (N) 3,679 5.8 -5.2°
Maximum altitude 18:53:01 51° 66° (ENE) 1,879 3.7 -7.4°
Drops below altitude 10° 19:01:52 10° 139° (SE) 3,602 5.0 -9.5°
Sets 19:04:48 0° 144° (SE) 4,498 5.5 -10.3°
